Location: La Fredeussais
(48.1780°N, 1.3980°W)
Time: 16:54:31
(UTC+00:00)

Meteor 1-11 Rocket - Pass Details

Date: 09 May 2021
Orbit: 831 x 916 km, 81.2° (Epoch: 24 June)

Event Time Altitude Azimuth Distance (km) Brightness Sun altitude
Rises 22:29:31 0° 345° (NNW) 3,566 8.5 -21.0°
Reaches altitude 10° 22:32:02 10° 342° (NNW) 2,620 7.4 -21.2°
Maximum altitude 22:37:54 59° 265° (W) 1,047 4.2 -21.6°
Enters shadow 22:40:24 34° 201° (SSW) 1,460 4.5 -21.7°
